ROMMA est une association bénévole à but non lucratif. Votre soutien est indispensable : ADHERER à ROMMA ou FAIRE un DON

Voiron - (38, Isère)

Voironnais (300 m)   Longitude: 05° 35' E   Latitude: 45° 23' N Station partenaire n°109
 

Détail journalier du     <<     >>

Température Precipitation Humidité Pression Vent Dir Rafale Dir. rafale Ensol.
Heure (°C) (mm) (%) (hPa) (km/h) (km/h) (min)
01:00 11.108710192O8SSE0
02:00 11.4087101903NO0
03:00 11.508710192NO8NO0
04:00 11.308810191O8SE0
05:00 10.6089101803O0
06:00 9.809110191O5O0
07:00 9.1092101805NNO0
08:00 8.909310181NO5NO0
09:00 9.6092101905NO0
10:00 13.307910181ESE6NO60
11:00 14.307310182SSO11SE30
12:00 15.407110183ENE15SE30
13:00 18.306510172N15SSO30
14:00 18.606510175SSO15S0
15:00 19.806210161S6ONO0
16:00 20.105910173S19SO30
17:00 19.306610172O11SSO0
18:00 16.408210171N6NNO0
19:00 15.808510172ONO11SSE0
20:00 15.908210172SE11SE0
21:00 15.708310171NO6SE0
22:00 15.30.288101805NNO0
23:00 14.70.49110181SE8SE0
minuit 14.30.293101803SE0

Graphique du 17-10-2019

 

Serveur OMMA